STARLINK-30562, 58033

Orbit data source: Space-Track

STARLINK-30562, 58033 is a payload satellite owned by SpaceX/Seattle (US) in LEO that was launched on Mon, 09 Oct 2023 UTC via an FALCON 9 launch vehicle from the Air Force Western Test Range (AFWTR). Payload-class satellites include a variety of spacecraft equipped with specific instruments for various scientific and technological missions. These include communications satellites like Starlink; space stations such as the ISS; scientific satellites like the Hubble; Earth observation satellites from companies like Planet Labs, Umbra, and HawkEye 360; GPS; miniature CubeSats for education and research; and military/defense satellites.

Loading next visibility...
Identifier
58033, 2023-156F
Orbit
LEO
Country
Flag of USUS
Related business
Manufacturer
SpaceX/Seattle
Mission
Operational Commercial Communications
Bus & Motor
STARLINK V2M, Unknown motor
Mass
730 kg wet, ~700 kg dry
Launch date (UTC)
2023-10-09 (3 years ago)
Launch vehicle
FALCON 9
Launch site
Air Force Western Test Range (AFWTR)
Object type
Payload
Rocket body
Debris
Shape & HBR
Box + 2 Pan, 17.7 m
Radar Cross Section
33.884 m², Large (>1 m²)

Expand to show TLE details & history
Last TLE update: 2 days ago

TLE from 2 days ago
0 STARLINK-30562
1 58033U 23156F   26170.95181429  .00002415  00000-0  93624-4 0  9991
2 58033  53.1613  52.8988 0001213  79.0968 281.0169 15.30199501150698
Epoch: 2026-06-19T22:50Z
TLE epoch observation values (Epoch: 2026-06-19T22:50:36.754Z)
Latitude
-0.00005°
Longitude
162.0722°
Altitude
475.958 km
Speed
7.629 km/s
True Right ascension
03h 31m 35s
True Declination
0° 00' 00"
Sunlit
Object was in daylight at epoch
Visualization orbit readout
Latitude
Unknown
Longitude
Unknown
Altitude
Unknown
Speed
Unknown
Apparent Right ascension
Unknown
Apparent Declination
Unknown
Sunlit
N/A
Visualization observer readout
Local Sidereal Time
21:41:46
Azimuth
Unknown
Elevation
Unknown
Doppler factor
Unknown
Orbital elements
Apogee altitude
476.304 km
Perigee altitude
474.641 km
Semi-major axis
6,853.61 km
Eccentricity
0.00012
Inclination
53.1613°
RAAN
52.8988°
Arg. of periapsis
79.0968°
True anomaly
281.00326°
Mean anomaly
281.0169°
Eccentric anomaly
281.01008°
Mean motion
3.82529 °/min
Orbital period
94.11 mins
BSTAR
0.000093624
Loading maneuver chart data...
Computing Atmospheric mass density...
Loading historical data...
Loading historical data...
Loading historical data...
Loading historical data...
Loading historical data...
Loading historical data...
Loading historical data...

Documentation

Showing up to 5 results
|